Waarnemingen

Advertentie
Mijn weer
Helgoland, Duitsland (10015): temperatuur & dauwpunt: 14.08.2017 04:00:00 - 20.08.2017 04:00:00 (CEST)Helgoland, Duitsland (10015): temperatuur 5cm: 14.08.2017 04:00:00 - 20.08.2017 04:00:00 (CEST)Helgoland, Duitsland (10015): windsnelheid & windstoten: 14.08.2017 04:00:00 - 20.08.2017 04:00:00 (CEST)Helgoland, Duitsland (10015): windrichting: 14.08.2017 04:00:00 - 20.08.2017 04:00:00 (CEST)Helgoland, Duitsland (10015): luchtdruk: 14.08.2017 04:00:00 - 20.08.2017 04:00:00 (CEST)Helgoland, Duitsland (10015): zicht: 14.08.2017 04:00:00 - 20.08.2017 04:00:00 (CEST)Helgoland, Duitsland (10015): Zonneschijnduur: 14.08.2017 04:00:00 - 20.08.2017 04:00:00 (CEST)Helgoland, Duitsland (10015): neerslag: 14.08.2017 04:00:00 - 20.08.2017 04:00:00 (CEST)
Datum & Tijd tt [°C] td [°C] tt 5cm [°C] ff [km/u] ff [kn] fx [km/u] fx [kn] dd ppp [hPa] vv [km] sd [min] rr [mm]
20.08.2017 04:00:00 - - - - - - - - - - - -
20.08.2017 03:00:00 16,4 12,3 15,5 34 18 50 27 WZW 1014,1 29 0 0,0
20.08.2017 02:00:00 16,4 10,9 13,9 34 18 44 24 W 1014,2 29 0 0,0
20.08.2017 01:00:00 15,1 11,6 12,8 21 11 61 33 W 1014,4 33 0 3,2
20.08.2017 00:00:00 14,3 10,0 12,4 19 11 51 27 W 1014,6 37 0 1,8
19.08.2017 23:00:00 14,8 11,4 13,0 45 24 56 30 WZW 1014,5 4,3 0 0,1
19.08.2017 22:00:00 15,1 11,2 13,2 27 15 59 32 WNW 1014,2 23 0 1,1
19.08.2017 21:00:00 17,0 9,7 15,4 39 21 48 26 W 1014,0 37 1 0,0
19.08.2017 20:00:00 16,5 11,2 15,5 34 19 63 34 W 1013,6 27 44 0,8
19.08.2017 19:00:00 16,6 11,2 16,0 41 22 54 29 W 1013,5 30 24 0,0
19.08.2017 18:00:00 17,2 11,0 17,3 35 19 47 25 W 1013,4 17 26 0,0
19.08.2017 17:00:00 16,3 11,6 15,4 33 18 72 39 W 1013,1 25 0 0,5
19.08.2017 16:00:00 17,6 12,0 17,7 46 25 54 29 WZW 1012,5 16 30 0,0
19.08.2017 15:00:00 17,8 11,4 19,6 44 24 58 31 WZW 1012,0 11 56 0,0
19.08.2017 14:00:00 16,9 12,4 18,0 32 18 59 32 WZW 1011,5 9 4 5,8
19.08.2017 13:00:00 16,8 12,9 18,3 40 21 49 26 ZW 1011,1 11 52 0,0
19.08.2017 12:00:00 16,2 12,0 18,6 40 22 47 26 ZW 1010,9 14 34 0,0
19.08.2017 11:00:00 15,7 11,3 16,4 39 21 53 29 WZW 1010,7 11 49 0,0
19.08.2017 10:00:00 15,5 11,4 15,7 42 23 59 32 ZW 1010,0 14 32 0,7
19.08.2017 09:00:00 15,1 12,5 14,9 46 25 56 31 ZW 1009,8 13 17 0,0
19.08.2017 08:00:00 15,0 12,6 14,8 48 26 58 31 ZW 1009,4 41 37 0,0
19.08.2017 07:00:00 14,8 11,7 13,6 42 23 52 28 ZZW 1009,2 30 0 0,5
19.08.2017 06:00:00 15,8 12,0 14,8 41 22 52 28 ZW 1008,6 39 0 0,0
19.08.2017 05:00:00 16,1 12,5 15,0 35 19 51 28 ZW 1008,6 41 0 0,5
19.08.2017 04:00:00 15,1 12,9 13,8 44 24 52 28 ZW 1008,7 1,9 0 0,0
19.08.2017 03:00:00 16,0 11,2 14,4 37 20 44 24 ZW 1008,7 59 0 0,0
19.08.2017 02:00:00 15,6 10,7 13,7 21 11 41 22 Z 1008,3 42 0 0,9
19.08.2017 01:00:00 17,0 12,9 15,2 24 13 33 18 WZW 1008,7 18 0 0,0
19.08.2017 00:00:00 16,8 12,4 15,2 23 12 28 15 W 1008,6 48 0 0,0
18.08.2017 23:00:00 16,5 13,6 14,8 19 10 39 21 W 1008,5 31 0 0,0
18.08.2017 22:00:00 16,6 13,9 15,3 34 18 44 24 W 1008,6 23 0 0,0
18.08.2017 21:00:00 17,7 14,5 16,3 24 13 34 18 W 1008,5 26 5 0,0
18.08.2017 20:00:00 17,9 15,0 17,1 24 13 30 16 W 1008,3 26 4 0,0
18.08.2017 19:00:00 16,1 15,2 16,0 24 13 47 26 W 1008,4 9 0 4,7
18.08.2017 18:00:00 18,1 16,4 17,9 29 16 35 19 Z 1008,1 11 0 0,9
18.08.2017 17:00:00 17,6 16,2 17,6 16 8 27 15 Z 1008,8 3,6 0 2,3
18.08.2017 16:00:00 19,6 15,3 22,5 12 6 21 11 ZZW 1009,0 12 30 0,0
18.08.2017 15:00:00 19,9 15,4 24,6 20 11 31 17 ZZW 1009,7 14 50 0,0
18.08.2017 14:00:00 19,3 15,3 21,4 26 14 36 19 ZW 1009,8 14 38 0,0
18.08.2017 13:00:00 18,9 15,4 21,8 30 16 38 21 ZZW 1009,9 8 32 0,0
18.08.2017 12:00:00 18,1 15,5 20,3 32 17 38 21 ZZW 1010,2 8 3 0,0
18.08.2017 11:00:00 17,7 15,8 18,9 31 17 39 21 ZZW 1010,5 7 0 0,0
18.08.2017 10:00:00 17,4 15,8 17,7 33 18 41 22 ZZW 1010,4 6 0 0,0
18.08.2017 09:00:00 17,3 15,7 17,4 33 18 40 21 ZZW 1010,2 7 0 0,0
18.08.2017 08:00:00 17,5 15,8 17,4 31 17 37 20 ZZW 1010,3 8 0 0,0
18.08.2017 07:00:00 17,7 15,9 17,4 28 15 36 19 ZW 1010,6 10 0 0,0
18.08.2017 06:00:00 17,8 16,0 17,5 31 17 42 23 ZZW 1010,6 10 0 0,0
18.08.2017 05:00:00 18,0 16,1 17,7 29 16 35 19 ZW 1010,7 10 0 0,0
18.08.2017 04:00:00 18,2 16,8 17,9 29 16 38 20 ZZW 1011,0 6 0 0,0
18.08.2017 03:00:00 18,3 16,9 17,9 28 15 40 22 ZZW 1011,2 6 0 0,0
18.08.2017 02:00:00 18,3 16,8 17,3 34 18 42 23 ZZW 1011,3 6 0 0,0
18.08.2017 01:00:00 18,3 16,9 17,5 31 17 43 23 ZZW 1011,3 6 0 0,0
18.08.2017 00:00:00 18,3 16,9 17,4 35 19 41 22 ZZW 1011,5 7 0 0,0
17.08.2017 23:00:00 18,3 16,8 17,9 34 18 40 22 ZZW 1011,7 8 0 0,0
17.08.2017 22:00:00 18,2 16,7 17,6 29 16 37 20 ZZW 1011,8 8 0 0,0
17.08.2017 21:00:00 18,1 16,4 17,4 29 15 49 26 ZZW 1011,8 10 0 0,0
17.08.2017 20:00:00 18,4 16,1 17,9 33 18 42 23 ZZW 1011,9 12 3 0,0
17.08.2017 19:00:00 17,8 16,2 17,1 32 17 47 25 ZW 1012,0 11 0 0,1
17.08.2017 18:00:00 18,2 15,8 18,1 38 20 51 27 ZW 1012,0 22 0 0,1
17.08.2017 17:00:00 17,9 15,7 17,4 38 20 45 24 ZZW 1012,0 6 0 1,8
17.08.2017 16:00:00 17,3 15,2 16,3 34 19 43 23 ZZW 1012,4 6 0 2,2
17.08.2017 15:00:00 17,8 15,4 16,9 22 12 43 23 ZZW 1012,8 4,2 0 1,5
17.08.2017 14:00:00 18,8 15,5 17,5 32 18 46 25 Z 1013,1 4,8 0 0,1
17.08.2017 13:00:00 18,6 16,2 19,8 29 16 36 19 Z 1012,9 8 0 0,0
17.08.2017 12:00:00 18,5 15,3 20,4 27 15 33 18 ZZO 1013,1 11 0 0,0
17.08.2017 11:00:00 18,4 15,4 20,2 29 16 35 19 ZZO 1013,8 8 0 0,0
17.08.2017 10:00:00 18,1 15,0 18,7 29 16 39 21 ZZO 1014,6 18 0 0,0
17.08.2017 09:00:00 18,3 14,4 18,3 31 17 37 20 ZZO 1014,9 17 0 0,0
17.08.2017 08:00:00 18,2 14,8 17,9 28 15 41 22 ZZO 1015,5 36 0 0,0
17.08.2017 07:00:00 18,1 13,5 17,0 36 19 43 23 ZZO 1015,8 39 0 0,0
17.08.2017 06:00:00 18,0 13,1 16,7 39 21 44 24 ZZO 1016,7 46 0 0,0
17.08.2017 05:00:00 18,2 12,9 17,4 36 20 44 24 ZZO 1017,3 53 0 0,0
17.08.2017 04:00:00 18,2 13,0 16,7 35 19 41 22 ZZO 1017,8 70 0 0,0
17.08.2017 03:00:00 18,3 12,7 16,6 33 18 40 21 ZZO 1018,6 67 0 0,0
17.08.2017 02:00:00 18,4 13,0 16,7 32 17 37 20 ZO 1018,8 63 0 0,0
17.08.2017 01:00:00 18,7 13,4 17,4 31 17 35 19 ZO 1019,4 67 0 0,0
17.08.2017 00:00:00 18,7 14,0 17,3 28 15 31 17 ZO 1019,9 68 0 0,0
16.08.2017 23:00:00 18,5 13,5 17,1 25 14 29 15 ZO 1020,5 70 0 0,0
16.08.2017 22:00:00 18,5 13,2 16,8 23 13 26 14 ZO 1021,0 70 0 0,0
16.08.2017 21:00:00 18,5 12,6 16,8 21 12 27 14 ZO 1020,8 70 0 0,0
16.08.2017 20:00:00 18,7 13,6 17,8 20 11 23 12 ZO 1020,9 70 1 0,0
16.08.2017 19:00:00 19,2 13,6 19,7 15 8 17 9 ZO 1021,2 45 0 0,0
16.08.2017 18:00:00 19,2 14,0 21,2 8 4 9 5 ZO 1021,3 51 42 0,0
16.08.2017 17:00:00 19,7 12,8 25,3 3 2 9 5 ZZO 1021,4 34 60 0,0
16.08.2017 16:00:00 19,8 13,8 24,7 9 5 11 6 ZW 1021,6 14 60 0,0
16.08.2017 15:00:00 19,7 14,0 25,5 8 5 11 6 ZW 1021,8 25 59 0,0
16.08.2017 14:00:00 19,6 14,1 25,7 8 4 13 7 WZW 1021,7 28 60 0,0
16.08.2017 13:00:00 19,6 14,5 24,8 11 6 15 8 W 1021,6 26 60 0,0
16.08.2017 12:00:00 19,3 14,0 24,3 10 6 13 7 W 1021,6 21 60 0,0
16.08.2017 11:00:00 18,7 14,0 23,0 10 5 14 7 W 1021,1 31 60 0,0
16.08.2017 10:00:00 18,5 13,8 21,3 11 6 19 10 WNW 1020,7 31 60 0,0
16.08.2017 09:00:00 18,1 13,9 19,4 16 8 26 14 WNW 1020,2 35 60 0,0
16.08.2017 08:00:00 17,4 13,6 17,1 21 12 28 15 WNW 1019,8 30 36 0,0
16.08.2017 07:00:00 16,9 13,6 15,4 21 12 27 15 NW 1019,1 40 0 0,0
16.08.2017 06:00:00 16,6 13,2 14,5 18 10 26 14 NW 1018,2 45 0 0,0
16.08.2017 05:00:00 17,0 14,0 15,3 21 11 26 14 WNW 1017,8 38 0 0,0
16.08.2017 04:00:00 17,4 14,6 16,4 21 11 27 15 NW 1017,6 33 0 0,0
16.08.2017 03:00:00 17,5 14,8 16,7 19 11 24 13 NW 1017,1 26 0 0,0
16.08.2017 02:00:00 17,5 15,8 16,2 13 7 19 10 NW 1016,9 10 0 0,0
16.08.2017 01:00:00 18,0 16,0 17,2 15 8 23 12 WNW 1016,5 22 0 0,0
16.08.2017 00:00:00 18,2 15,8 17,5 15 8 21 11 WNW 1015,9 15 0 0,0
15.08.2017 23:00:00 19,2 14,1 18,3 15 8 25 13 NW 1015,6 21 0 0,0
15.08.2017 22:00:00 18,5 16,3 18,1 20 11 28 15 NNW 1015,0 5 0 0,0
15.08.2017 21:00:00 18,8 16,5 18,5 17 9 22 12 NW 1014,2 5 0 0,0
15.08.2017 20:00:00 19,1 16,8 19,6 12 6 26 14 WNW 1014,0 5 0 0,0
15.08.2017 19:00:00 19,5 16,2 19,7 16 9 21 11 WNW 1013,5 7 0 0,0
15.08.2017 18:00:00 19,4 17,0 20,5 14 8 18 10 WNW 1014,2 4,9 5 0,0
15.08.2017 17:00:00 20,4 17,0 22,8 9 5 10 6 WZW 1014,1 10 0 0,0
15.08.2017 16:00:00 20,4 16,9 22,0 5 3 6 3 ZO 1013,8 10 0 0,0
15.08.2017 15:00:00 21,0 16,7 23,1 3 1 5 3 Z 1014,2 13 14 0,0
15.08.2017 14:00:00 20,8 16,3 26,0 5 3 25 14 Z 1014,2 18 40 0,0
15.08.2017 13:00:00 20,5 16,1 24,9 22 12 25 14 ZZO 1014,5 15 35 0,0
15.08.2017 12:00:00 19,5 15,6 22,3 23 12 29 16 ZZO 1014,7 21 37 0,0
15.08.2017 11:00:00 19,0 15,2 22,0 27 15 31 17 ZO 1014,5 19 22 0,0
15.08.2017 10:00:00 19,7 15,7 23,6 21 12 32 18 ZZO 1014,7 26 42 0,0
15.08.2017 09:00:00 18,5 14,8 19,0 29 15 33 18 ZZO 1014,9 26 13 0,0
15.08.2017 08:00:00 18,7 14,7 19,3 27 15 34 19 ZZO 1015,1 25 21 0,0
15.08.2017 07:00:00 18,2 14,8 16,7 27 15 32 17 ZZO 1015,3 29 0 0,0
15.08.2017 06:00:00 18,1 14,8 16,6 27 14 40 22 ZZO 1015,6 28 0 0,0
15.08.2017 05:00:00 18,1 14,6 16,8 33 18 40 22 ZZO 1015,9 28 0 0,0
15.08.2017 04:00:00 18,3 14,8 17,7 33 18 42 23 ZO 1016,3 29 0 0,0
15.08.2017 03:00:00 18,3 14,8 17,1 39 21 44 24 ZO 1016,9 31 0 0,0
15.08.2017 02:00:00 18,0 14,7 17,5 29 16 42 23 OZO 1017,7 31 0 0,0
15.08.2017 01:00:00 17,8 14,4 16,8 37 20 44 24 OZO 1018,5 33 0 0,0
15.08.2017 00:00:00 18,3 14,5 17,0 38 20 45 25 OZO 1019,2 37 0 0,0
14.08.2017 23:00:00 18,3 14,1 17,2 34 18 39 21 O 1019,5 45 0 0,0
14.08.2017 22:00:00 19,0 13,5 17,2 26 14 29 16 O 1020,0 48 0 0,0
14.08.2017 21:00:00 18,9 13,5 17,0 23 13 26 14 O 1019,8 67 11 0,0
14.08.2017 20:00:00 18,9 13,0 19,1 22 12 26 14 O 1020,0 63 60 0,0
14.08.2017 19:00:00 19,0 11,7 20,6 21 11 24 13 OZO 1020,4 39 60 0,0
14.08.2017 18:00:00 18,8 11,0 22,7 22 12 30 16 O 1021,0 22 60 0,0
14.08.2017 17:00:00 19,3 10,6 24,1 26 14 30 16 OZO 1021,5 18 60 0,0
14.08.2017 16:00:00 19,1 7,7 24,4 26 14 29 16 OZO 1022,1 22 60 0,0
14.08.2017 15:00:00 18,9 11,2 25,5 22 12 26 14 OZO 1022,6 18 60 0,0
14.08.2017 14:00:00 19,0 10,6 25,1 22 12 29 16 ZO 1023,0 16 60 0,0
14.08.2017 13:00:00 17,8 10,8 23,0 25 14 36 19 ZO 1023,4 28 60 0,0
14.08.2017 12:00:00 17,2 10,5 21,2 29 16 36 19 ZZO 1023,6 16 59 0,0
14.08.2017 11:00:00 16,8 10,9 19,6 31 17 39 21 ZZO 1023,8 12 60 0,0
14.08.2017 10:00:00 16,5 11,1 18,0 33 18 40 21 ZO 1023,7 18 60 0,0
14.08.2017 09:00:00 16,3 10,8 16,8 29 16 34 18 ZZO 1023,6 39 60 0,0
14.08.2017 08:00:00 16,2 11,0 15,5 24 13 28 15 ZZO 1023,3 20 58 0,0
14.08.2017 07:00:00 15,7 10,6 13,1 21 11 26 14 ZO 1023,1 46 0 0,0
14.08.2017 06:00:00 15,5 9,8 12,5 18 10 21 11 ZO 1022,9 67 0 0,0
14.08.2017 05:00:00 15,3 9,9 11,2 13 7 18 10 ZO 1023,0 70 0 0,0
14.08.2017 04:00:00 15,1 9,6 8,9 8 5 13 7 ZO 1023,2 70 0 0,0

tt = temperatuur
td = dauwpunt
tt 5cm = temperatuur 5cm
ff = windsnelheid
fx = windstoten
dd = windrichting
ppp = luchtdruk
vv = zicht
sd = Zonneschijnduur
rr = neerslag

Weerstations in de omgeving